timestamp,surface_pressure_avg,surface_temp_avg,battery_voltage,lat,long
2019-12-23 00:09:01+00:00,250.8481,3.7,12.73,47.84626,-54.09684
2019-12-23 00:19:01+00:00,242.7114,3.7,12.65,47.84626,-54.09684
2019-12-23 00:29:01+00:00,234.0664,3.7,12.65,47.84626,-54.09684
2019-12-23 00:39:01+00:00,229.0064,3.3,12.65,47.84626,-54.09684
2019-12-23 00:49:01+00:00,224.1281,3.09,12.65,47.84626,-54.09684
2019-12-23 00:59:01+00:00,219.3731,2.9,12.65,47.84626,-54.09684
2019-12-23 01:09:01+00:00,215.8681,2.9,12.65,47.84626,-54.09684
2019-12-23 01:19:01+00:00,211.4731,2.9,12.65,47.84626,-54.09684
2019-12-23 01:29:01+00:00,205.4131,2.9,12.65,47.84626,-54.09684
2019-12-23 01:39:01+00:00,201.2031,2.92,12.65,47.84626,-54.09684
2019-12-23 01:49:01+00:00,202.0398,3.0,12.65,47.84626,-54.09684
2019-12-23 01:59:01+00:00,201.4681,3.1,12.65,47.84626,-54.09684
2019-12-23 02:09:01+00:00,197.3914,3.16,12.65,47.84626,-54.09684
2019-12-23 02:19:01+00:00,195.0481,3.2,12.57,47.84626,-54.09684
2019-12-23 02:29:01+00:00,195.1848,3.2,12.57,47.84626,-54.09684
2019-12-23 02:39:01+00:00,195.9398,3.29,12.57,47.84626,-54.09684
2019-12-23 02:49:01+00:00,195.5831,3.3,12.57,47.84626,-54.09684
2019-12-23 02:59:01+00:00,195.6764,3.36,12.57,47.84626,-54.09684
2019-12-23 03:09:01+00:00,197.3698,3.39,12.57,47.84626,-54.09684
2019-12-23 03:19:01+00:00,197.4448,3.4,12.57,47.84626,-54.09684
2019-12-23 03:29:01+00:00,197.5731,3.4,12.57,47.84626,-54.09684
2019-12-23 03:39:01+00:00,201.4065,3.4,12.57,47.84626,-54.09684
2019-12-23 03:49:01+00:00,206.4164,3.39,12.57,47.84626,-54.09684
2019-12-23 03:59:01+00:00,207.8398,3.4,12.57,47.84626,-54.09684
2019-12-23 04:09:01+00:00,209.0964,3.4,12.57,47.84626,-54.09684
2019-12-23 04:19:01+00:00,212.5681,3.4,12.57,47.84626,-54.09684
2019-12-23 04:29:01+00:00,216.8997,3.42,12.57,47.84626,-54.09684
2019-12-23 04:39:01+00:00,223.07299999999998,3.44,12.57,47.84626,-54.09684
2019-12-23 04:49:01+00:00,227.9998,3.47,12.57,47.84626,-54.09684
2019-12-23 04:59:01+00:00,230.2381,3.49,12.57,47.84626,-54.09684
2019-12-23 05:09:01+00:00,234.4148,3.5,12.57,47.84626,-54.09684
2019-12-23 05:19:01+00:00,243.2564,3.57,12.57,47.84626,-54.09684
2019-12-23 05:29:01+00:00,250.9098,3.6,12.57,47.84626,-54.09684
2019-12-23 05:39:01+00:00,255.2264,3.66,12.57,47.84626,-54.09684
2019-12-23 05:49:01+00:00,259.1814,3.68,12.57,47.84626,-54.09684
2019-12-23 05:59:01+00:00,268.8481,3.69,12.57,47.84626,-54.09684
2019-12-23 06:09:01+00:00,277.7831,3.69,12.57,47.84626,-54.09684
2019-12-23 06:19:01+00:00,281.8247,3.68,12.49,47.84626,-54.09684
2019-12-23 06:29:01+00:00,288.1946,3.68,12.49,47.84626,-54.09684
2019-12-23 06:39:01+00:00,300.0213,3.68,12.49,47.84626,-54.09684
2019-12-23 06:49:01+00:00,309.71299999999997,3.69,12.49,47.84626,-54.09684
2019-12-23 06:59:01+00:00,314.2313,3.7,12.49,47.84626,-54.09684
2019-12-23 07:09:01+00:00,322.3246,3.7,12.49,47.84626,-54.09684
2019-12-23 07:19:01+00:00,331.9946,3.7,12.49,47.84626,-54.09684
2019-12-23 07:29:01+00:00,335.0079,3.7,12.49,47.84626,-54.09684
2019-12-23 07:39:01+00:00,334.1097,3.7,12.49,47.84626,-54.09684
2019-12-23 07:49:01+00:00,340.2597,3.7,12.49,47.84626,-54.09684
2019-12-23 07:59:01+00:00,348.6312,3.7,12.49,47.84626,-54.09684
2019-12-23 08:09:01+00:00,349.5963,3.76,12.49,47.84626,-54.09684
2019-12-23 08:19:01+00:00,348.1262,3.72,12.49,47.84626,-54.09684
2019-12-23 08:29:01+00:00,352.4012,3.75,12.49,47.84626,-54.09684
2019-12-23 08:39:01+00:00,355.6979,3.8,12.49,47.84626,-54.09684
2019-12-23 08:49:01+00:00,355.773,3.8,12.49,47.84626,-54.09684
2019-12-23 08:59:01+00:00,357.5563,3.8,12.49,47.84626,-54.09684
2019-12-23 09:09:01+00:00,360.8179,3.8,12.49,47.84626,-54.09684
2019-12-23 09:19:01+00:00,359.5945,3.8,12.49,47.84626,-54.09684
2019-12-23 09:29:01+00:00,359.4597,3.8,12.49,47.84626,-54.09684
2019-12-23 09:39:01+00:00,365.2546,3.8,12.49,47.84626,-54.09684
2019-12-23 09:49:01+00:00,365.2662,3.82,12.49,47.84626,-54.09684
2019-12-23 09:59:01+00:00,364.6363,3.83,12.49,47.84626,-54.09684
2019-12-23 10:09:01+00:00,363.6247,3.89,12.49,47.84626,-54.09684
2019-12-23 10:19:01+00:00,364.3163,3.9,12.49,47.84626,-54.09684
2019-12-23 10:29:01+00:00,361.7778,3.88,12.49,47.84626,-54.09684
2019-12-23 10:39:01+00:00,356.4113,3.87,12.49,47.84626,-54.09684
2019-12-23 10:49:01+00:00,353.4196,3.88,12.49,47.84626,-54.09684
2019-12-23 10:59:01+00:00,349.2363,3.89,12.49,47.84626,-54.09684
2019-12-23 11:09:01+00:00,343.1396,3.83,12.49,47.84626,-54.09684
2019-12-23 11:19:01+00:00,337.4729,3.8,12.49,47.84626,-54.09684
2019-12-23 11:29:01+00:00,331.6380000000001,3.8,12.49,47.84626,-54.09684
2019-12-23 11:39:01+00:00,321.8097,3.7,12.49,47.84626,-54.09684
2019-12-23 11:49:01+00:00,311.7596,3.6,12.49,47.84626,-54.09684
2019-12-23 11:59:01+00:00,305.0481,3.59,12.49,47.84626,-54.09684
2019-12-23 12:09:01+00:00,294.7714,3.6,12.49,47.84626,-54.09684
2019-12-23 12:19:01+00:00,284.3763,3.3,12.97,47.84626,-54.09684
2019-12-23 12:29:01+00:00,277.1348,3.3,12.97,47.84626,-54.09684
2019-12-23 12:39:01+00:00,270.5881,3.13,12.97,47.84626,-54.09684
2019-12-23 12:49:01+00:00,260.5281,3.2,12.97,47.84626,-54.09684
2019-12-23 12:59:01+00:00,254.8165,3.2,12.97,47.84626,-54.09684
2019-12-23 13:09:01+00:00,252.3714,3.2,12.97,47.84626,-54.09684
2019-12-23 13:19:01+00:00,247.5347,3.25,14.88,47.84626,-54.09684
2019-12-23 13:29:01+00:00,241.8764,3.24,14.88,47.84626,-54.09684
2019-12-23 13:39:01+00:00,240.3531,3.24,14.88,47.84626,-54.09684
2019-12-23 13:49:01+00:00,240.3114,3.28,14.88,47.84626,-54.09684
2019-12-23 13:59:01+00:00,237.1914,3.3,14.88,47.84626,-54.09684
2019-12-23 14:09:01+00:00,234.1448,3.3,14.88,47.84626,-54.09684
2019-12-23 14:19:01+00:00,231.4998,2.96,14.56,47.84626,-54.09684
2019-12-23 14:29:01+00:00,228.2414,2.66,14.56,47.84626,-54.09684
2019-12-23 14:39:01+00:00,225.1665,2.5,14.56,47.84626,-54.09684
2019-12-23 14:49:01+00:00,221.6631,2.4,14.56,47.84626,-54.09684
2019-12-23 14:59:01+00:00,218.1548,2.3,14.56,47.84626,-54.09684
2019-12-23 15:09:01+00:00,215.22299999999998,2.3,14.56,47.84626,-54.09684
2019-12-23 15:19:01+00:00,213.7564,2.3,14.88,47.84626,-54.09684
2019-12-23 15:29:01+00:00,212.7115,2.3,14.88,47.84626,-54.09684
2019-12-23 15:39:01+00:00,209.8831,2.3,14.88,47.84626,-54.09684
2019-12-23 15:49:01+00:00,207.0832,2.3,14.88,47.84626,-54.09684
2019-12-23 15:59:01+00:00,208.2014,2.3,14.88,47.84626,-54.09684
2019-12-23 16:09:01+00:00,210.0547,2.3,14.88,47.84626,-54.09684
2019-12-23 16:19:01+00:00,210.2597,2.3,14.8,47.84626,-54.09684
2019-12-23 16:29:01+00:00,210.2581,2.3,14.8,47.84626,-54.09684
2019-12-23 16:39:01+00:00,210.8731,2.3,14.8,47.84626,-54.09684
2019-12-23 16:49:01+00:00,214.1848,2.37,14.8,47.84626,-54.09684
2019-12-23 16:59:01+00:00,217.5614,2.4,14.8,47.84626,-54.09684
2019-12-23 17:09:01+00:00,220.1531,2.4,14.8,47.84626,-54.09684
2019-12-23 17:19:01+00:00,222.5131,2.49,14.64,47.84626,-54.09684
2019-12-23 17:29:01+00:00,226.1797,2.5,14.64,47.84626,-54.09684
2019-12-23 17:39:01+00:00,230.1681,2.54,14.64,47.84626,-54.09684
2019-12-23 17:49:01+00:00,235.0181,2.6,14.64,47.84626,-54.09684
2019-12-23 17:59:01+00:00,239.1981,2.66,14.64,47.84626,-54.09684
2019-12-23 18:09:01+00:00,243.2514,2.75,14.64,47.84626,-54.09684
2019-12-23 18:19:01+00:00,247.1364,2.81,14.48,47.84626,-54.09684
2019-12-23 18:29:01+00:00,251.1848,2.9,14.48,47.84626,-54.09684
2019-12-23 18:39:01+00:00,256.0381,2.9,14.48,47.84626,-54.09684
2019-12-23 18:49:01+00:00,262.8297,2.94,14.48,47.84626,-54.09684
2019-12-23 18:59:01+00:00,269.7881,2.9,14.48,47.84626,-54.09684
2019-12-23 19:09:01+00:00,275.2481,2.9,14.48,47.84626,-54.09684
2019-12-23 19:19:01+00:00,281.8464,2.8,13.84,47.84626,-54.09684
2019-12-23 19:29:01+00:00,292.508,2.8,13.84,47.84626,-54.09684
2019-12-23 19:39:01+00:00,298.858,2.8,13.84,47.84626,-54.09684
2019-12-23 19:49:01+00:00,301.9913,2.91,13.84,47.84626,-54.09684
2019-12-23 19:59:01+00:00,309.4614,3.33,13.84,47.84626,-54.09684
2019-12-23 20:09:01+00:00,317.8946,3.5,13.84,47.84626,-54.09684
2019-12-23 20:19:01+00:00,320.4613,3.5,13.37,47.84626,-54.09684
2019-12-23 20:29:01+00:00,323.21299999999997,3.4,13.37,47.84626,-54.09684
2019-12-23 20:39:01+00:00,332.4529,3.4,13.37,47.84626,-54.09684
2019-12-23 20:49:01+00:00,339.9329,3.38,13.37,47.84626,-54.09684
2019-12-23 20:59:01+00:00,340.413,3.3,13.37,47.84626,-54.09684
2019-12-23 21:09:01+00:00,345.8996,3.25,13.37,47.84626,-54.09684
2019-12-23 21:19:01+00:00,348.6412,3.2,12.97,47.84626,-54.09684
2019-12-23 21:29:01+00:00,348.6846,3.2,12.97,47.84626,-54.09684
2019-12-23 21:39:01+00:00,350.168,3.1,12.97,47.84626,-54.09684
2019-12-23 21:49:01+00:00,355.3597,3.1,12.97,47.84626,-54.09684
2019-12-23 21:59:01+00:00,357.293,3.0,12.97,47.84626,-54.09684
2019-12-23 22:09:01+00:00,354.9079,2.66,12.97,47.84626,-54.09684
2019-12-23 22:19:01+00:00,357.0596,2.57,12.73,47.84626,-54.09684
2019-12-23 22:29:01+00:00,360.68800000000016,2.73,12.73,47.84626,-54.09684
2019-12-23 22:39:01+00:00,362.483,2.8,12.73,47.84626,-54.09684
2019-12-23 22:49:01+00:00,360.5198,2.5,12.73,47.84626,-54.09684
2019-12-23 22:59:01+00:00,354.2731,2.44,12.73,47.84626,-54.09684
2019-12-23 23:09:01+00:00,348.2747,2.5,12.73,47.84626,-54.09684
2019-12-23 23:19:01+00:00,342.6296,2.56,12.73,47.84626,-54.09684
2019-12-23 23:29:01+00:00,336.2697,2.7,12.73,47.84626,-54.09684
2019-12-23 23:39:01+00:00,333.2664,2.78,12.73,47.84626,-54.09684
2019-12-23 23:49:01+00:00,328.7447,2.77,12.73,47.84626,-54.09684
2019-12-23 23:59:01+00:00,318.6447,2.7,12.73,47.84626,-54.09684
